Weather History for Francistown, Botswana

Change the Weather History Date:

Monday, February 4, 2013

  Actual Average Record
Temperature  
Mean Temperature 80 °F -  
Max Temperature 87 °F 84 °F 96 °F (2007)
Min Temperature 71 °F 65 °F 59 °F (2005)
Cooling Degree Days 14    
Growing Degree Days 30 (Base 50)    
Moisture  
Dew Point 64 °F    
Average Humidity 64    
Maximum Humidity 83    
Minimum Humidity 43    
Precipitation  
Precipitation 0.00 in - - ()
Sea Level Pressure  
Sea Level Pressure 29.95 in    
Wind  
Wind Speed 6 mph ()    
Max Wind Speed 17 mph    
Max Gust Speed -    
Visibility 6.2 miles    
Events      
Averages and records for this station are not official NWS values.
T = Trace of Precipitation, MM = Missing Value Source: Averaged Metar Reports

Daily Weather History Graph

Daily Weather History Graph

Search for Another Location

Airport:

Trip Planner

Search our weather history database for the weather conditions in past years. The results will help you decide how hot, cold, wet, or windy it might be!

Date:

Astronomy

Feb. 04, 2013 Rise Set
Actual Time 5:54 AM CAT 6:53 PM CAT
Civil Twilight 5:31 AM CAT 7:16 PM CAT
Nautical Twilight 5:03 AM CAT 7:44 PM CAT
Astronomical Twilight 4:35 AM CAT 8:12 PM CAT
Moon No Moon Rise 1:22 PM CAT (2/4)
Length of Visible Light 13h 45m
Length of Day
12h 58m
Last Quarter, 41% of the Moon is Illuminated
Feb 4
Last Quarter
Feb 10
New
Feb 17
First Quarter
Feb 25
Full
Mar 4
Last Quarter

Hourly Weather History & Observations

Time (CAT) Temp. Heat Index Dew Point Humidity Pressure Visibility Wind Dir Wind Speed Gust Speed Precip Events Conditions
12:00 AM 75.2 °F - 68.0 °F 78% 29.89 in - NW 3.5 mph - N/A   Clear
1:00 AM 75.2 °F - 68.0 °F 78% 29.92 in - West 5.8 mph - N/A   Clear
2:00 AM 70 °F - 65 °F 79%  in 6 mi North 3.5 mph - -   Partly Cloudy
3:00 AM 73.4 °F - 68.0 °F 83% 29.92 in - Calm Calm - N/A   Clear
4:00 AM 71.6 °F - 66.2 °F 83% 29.95 in - South 17.3 mph - N/A   Clear
5:00 AM 73.4 °F - 60.8 °F 65% 29.95 in 6.2 mi South 8.1 mph - N/A   Scattered Clouds
6:00 AM 73.4 °F - 60.8 °F 65% 29.95 in 6.2 mi SSE 6.9 mph - N/A   Scattered Clouds
7:00 AM 73.4 °F - 62.6 °F 69% 29.98 in 6.2 mi South 2.3 mph - N/A   Scattered Clouds
8:00 AM 76 °F - 63 °F 54%  in 6 mi South 6.9 mph - -   Scattered Clouds
8:00 AM 77.0 °F - 62.6 °F 61% 29.98 in 6.2 mi South 3.5 mph - N/A   Scattered Clouds
9:00 AM 78.8 °F - 64.4 °F 61% 30.01 in 6.2 mi WNW 5.8 mph - N/A   Scattered Clouds
10:00 AM 80.6 °F 82.3 °F 64.4 °F 58% 30.01 in 6.2 mi WNW 4.6 mph - N/A   Mostly Cloudy
11:00 AM 80.6 °F 81.8 °F 62.6 °F 54% 30.01 in - NW 15.0 mph - N/A   Clear
1:00 PM 82.4 °F 83.9 °F 64.4 °F 54% 29.95 in 6.2 mi WNW 16.1 mph - N/A   Mostly Cloudy
2:00 PM 86.0 °F 86.1 °F 60.8 °F 43% 29.92 in 6.2 mi WNW 13.8 mph - N/A   Mostly Cloudy
4:00 PM 87.8 °F 88.5 °F 62.6 °F 43% 29.89 in 6.2 mi West 8.1 mph - N/A   Mostly Cloudy
6:00 PM 86.0 °F 87.3 °F 64.4 °F 48% 29.89 in 6.2 mi NW 4.6 mph - N/A   Mostly Cloudy
7:00 PM 84.2 °F 86.6 °F 66.2 °F 55% 29.89 in 6.2 mi WSW 3.5 mph - N/A   Mostly Cloudy
8:00 PM 80.6 °F 82.7 °F 66.2 °F 61% 29.92 in - West 3.5 mph - N/A   Clear
9:00 PM 75.2 °F - 66.2 °F 73% 29.95 in - WNW 3.5 mph - N/A   Clear
10:00 PM 73.4 °F - 64.4 °F 73% 29.95 in - NNW 8.1 mph - N/A   Clear
11:00 PM 71.6 °F - 64.4 °F 78% 29.98 in - West 4.6 mph - N/A   Clear